SL-12 R/B(2), 11571

Orbit data source: Space-Track

SL-12 R/B(2), 11571 is space debris in GEO originally from a launch on Tue, 20 Sep 1977 UTC launched from the Tyuratam Missile And Space Complex (TTMTR). Debris objects in space refer to the collection of defunct objects orbiting the Earth. Examples of debris include non-operational satellites, rocket bodies, and fragments generated from explosions, collisions, or faulty payload assembly.

Not visible in the next 10 days
SL-12 R/B(2) details
Identifier
11571, 1977-092G
Orbit
GEO
Last TLE update18 hours ago
Origin
Flag of CISRVSN (CIS)
ManufacturerNPO Energiya
MissionSpacecraft
Bus & MotorBLOK DM, Unknown motor
Mass2,440 kg wet, 2,440 kg dry
Launch date (UTC)
1977-09-20 (47 years ago)
Launch vehicleUnknown
Launch site
Tyuratam Missile And Space Complex (TTMTR)
Object type
Payload
Rocket body
Debris
Shape & HBRCyl, 6.27 m
Radar Cross Section23.597 m², Large (>1 m²)

Expand to show TLE details & history

TLE from 18 hours ago
0 SL-12 R/B(2)
1 11571U 77092G   25035.57266919 -.00000257  00000-0  00000-0 0  9995
2 11571   4.8020 277.0062 0009960 168.5103  11.0672  1.01285278117913
Epoch: 2025-02-04T13:44Z
Definitive object data (Epoch: 2025-02-04T13:44:38.618Z)
Latitude0.03702°
Longitude115.50145°
Altitude35,463.396 km
Speed3.088 km/s
True Right ascension06h 26m 33s
True Declination0° 02' 13"
Sunlit
Object was in daylight at TLE epoch
Visualization TLE readout
Latitude4.77653°
Longitude30.06385°
Altitude35,492.837 km
Speed3.086 km/s
Apparent Right ascension00h 27m 51s
Apparent Declination0° 44' 29"
Sunlit
Object is in daylight
Visualization observer readout
Local Sidereal Time09:51:48
Azimuth307.823° NW
Elevation-37.173°
Doppler factor1
Orbital elements
Apogee altitude35,547.631 km
Perigee altitude35,464.198 km
Semi-major axis41,884.051 km
Eccentricity0.000996
Inclination4.802°
RAAN277.0062°
Arg. of periapsis168.5103°
True anomaly11.08914°
Mean anomaly11.0672°
Eccentric anomaly11.07817°
Mean motion0.2532 °/min
BSTARUnknown
Orbital period1421.78 mins
Loading historical data...
11571 neighbors
Authenticating...
Loading maneuver chart data...
Loading historical data...
Loading historical data...
Loading historical data...
Loading historical data...
Loading historical data...
Loading historical data...
Loading historical data...

SL-12 R/B(2) Visibility forecast

Observer location: undefined°, undefined

SL-12 R/B(2) is not visible in the next 10 days
Span
Click to sort rows by Start time (UTC) header in descending order
Start Az.
Max El. time (UTC)
Max El. Az.
Max El.
End time (UTC)
End Az.
|